| time (UTC) | temp F | wind direction | speed MPH | gust MPH | rain 1hr in | rain 24hr in | rain mn in | humidity % | barometer mb |
| 20260505055017 | 60 | 51 | 10.0 | 20.0 | 0.00 | 0.00 | 0.00 | 43 | 1009.1 |
| 20260505054017 | 60 | 56 | 10.0 | 21.0 | 0.00 | 0.00 | 0.00 | 43 | 1008.8 |
| 20260505053016 | 61 | 57 | 10.0 | 22.0 | 0.00 | 0.00 | 0.00 | 43 | 1008.6 |
| 20260505052016 | 61 | 46 | 9.0 | 23.0 | 0.00 | 0.00 | 0.00 | 43 | 1008.3 |
| 20260505051016 | 62 | 50 | 12.0 | 23.0 | 0.00 | 0.00 | 0.00 | 44 | 1008.2 |
| 20260505041036 | 67 | 36 | 15.0 | 32.0 | 0.00 | 0.00 | 0.00 | 38 | 1006.8 |
| 20260505040016 | 70 | 42 | 14.0 | 27.0 | 0.00 | 0.00 | 0.00 | 32 | 1006.3 |
| 20260505035016 | 70 | 34 | 7.0 | 22.0 | 0.00 | 0.00 | 0.00 | 30 | 1005.8 |
| 20260505034016 | 71 | 26 | 9.0 | 19.0 | 0.00 | 0.00 | 0.00 | 29 | 1005.3 |
| 20260505033016 | 71 | 53 | 9.0 | 22.0 | 0.00 | 0.00 | 0.00 | 28 | 1004.8 |
| 20260505032016 | 72 | 47 | 10.0 | 19.0 | 0.00 | 0.00 | 0.00 | 27 | 1004.5 |
| 20260505031056 | 72 | 42 | 11.0 | 23.0 | 0.00 | 0.00 | 0.00 | 25 | 1004.5 |
| 20260505030016 | 73 | 24 | 6.0 | 19.0 | 0.00 | 0.00 | 0.00 | 24 | 1004.4 |
| 20260505025016 | 74 | 19 | 4.0 | 14.0 | 0.00 | 0.00 | 0.00 | 23 | 1003.9 |
| 20260505024036 | 74 | 13 | 7.0 | 18.0 | 0.00 | 0.00 | 0.00 | 22 | 1003.5 |
| 20260505023016 | 75 | 5 | 6.0 | 17.0 | 0.00 | 0.00 | 0.00 | 22 | 1003.3 |
| 20260505022016 | 75 | 359 | 7.0 | 15.0 | 0.00 | 0.00 | 0.00 | 22 | 1003.0 |
| 20260505021016 | 76 | 350 | 7.0 | 15.0 | 0.00 | 0.00 | 0.00 | 21 | 1002.7 |
| 20260505020016 | 77 | 358 | 8.0 | 20.0 | 0.00 | 0.00 | 0.00 | 20 | 1002.4 |
| 20260505015016 | 77 | 348 | 3.0 | 9.0 | 0.00 | 0.00 | 0.00 | 19 | 1002.1 |
| 20260505014016 | 77 | 348 | 5.0 | 10.0 | 0.00 | 0.00 | 0.00 | 19 | 1001.8 |
| 20260505013016 | 78 | 358 | 5.0 | 14.0 | 0.00 | 0.00 | 0.00 | 19 | 1001.9 |
| 20260505012016 | 78 | 336 | 6.0 | 13.0 | 0.00 | 0.00 | 0.00 | 19 | 1001.5 |
| 20260505011016 | 79 | 0.0 | 0.0 | 0.00 | 0.00 | 0.00 | 20 | 1001.4 | |
| 20260505010016 | 80 | 0.0 | 0.0 | 0.00 | 0.00 | 0.00 | 21 | 1001.3 | |
| 20260505005016 | 80 | 0.0 | 0.0 | 0.00 | 0.00 | 0.00 | 19 | 1001.5 | |
| 20260505004016 | 80 | 0.0 | 0.0 | 0.00 | 0.00 | 0.00 | 19 | 1001.6 | |
| 20260505003015 | 80 | 0.0 | 0.0 | 0.00 | 0.00 | 0.00 | 17 | 1001.7 | |
| 20260505002016 | 81 | 360 | 0.0 | 3.0 | 0.00 | 0.00 | 0.00 | 17 | 1001.8 |
| 20260505001036 | 81 | 360 | 1.0 | 3.0 | 0.00 | 0.00 | 0.00 | 18 | 1001.8 |
| 20260505000015 | 81 | 360 | 3.0 | 6.0 | 0.00 | 0.00 | 0.00 | 17 | 1001.8 |
| 20260504235015 | 82 | 251 | 2.0 | 5.0 | 0.00 | 0.00 | 0.00 | 16 | 1002.0 |
| 20260504234016 | 82 | 275 | 1.0 | 3.0 | 0.00 | 0.00 | 0.00 | 17 | 1001.7 |
| 20260504233015 | 82 | 271 | 1.0 | 4.0 | 0.00 | 0.00 | 0.00 | 17 | 1001.8 |
| 20260504232015 | 82 | 256 | 1.0 | 5.0 | 0.00 | 0.00 | 0.00 | 17 | 1001.9 |
| 20260504231015 | 82 | 0.0 | 4.0 | 0.00 | 0.00 | 0.00 | 16 | 1001.5 | |
| 20260504230036 | 83 | 229 | 2.0 | 6.0 | 0.00 | 0.00 | 0.00 | 16 | 1001.6 |
| 20260504225015 | 82 | 320 | 2.0 | 4.0 | 0.00 | 0.00 | 0.00 | 16 | 1001.6 |
| 20260504224015 | 83 | 267 | 5.0 | 13.0 | 0.00 | 0.00 | 0.00 | 16 | 1002.0 |
| 20260504223015 | 83 | 243 | 2.0 | 6.0 | 0.00 | 0.00 | 0.00 | 16 | 1002.0 |
| 20260504222015 | 83 | 244 | 1.0 | 4.0 | 0.00 | 0.00 | 0.00 | 16 | 1002.2 |
| 20260504221015 | 82 | 247 | 3.0 | 9.0 | 0.00 | 0.00 | 0.00 | 15 | 1002.2 |
| 20260504220015 | 83 | 255 | 4.0 | 10.0 | 0.00 | 0.00 | 0.00 | 15 | 1002.3 |
| 20260504215015 | 83 | 247 | 5.0 | 10.0 | 0.00 | 0.00 | 0.00 | 15 | 1002.4 |
| 20260504214015 | 83 | 175 | 2.0 | 6.0 | 0.00 | 0.00 | 0.00 | 16 | 1002.5 |
| 20260504213015 | 83 | 150 | 4.0 | 10.0 | 0.00 | 0.00 | 0.00 | 15 | 1002.6 |
| 20260504212035 | 83 | 53 | 3.0 | 7.0 | 0.00 | 0.00 | 0.00 | 15 | 1003.1 |
| 20260504211015 | 83 | 34 | 2.0 | 5.0 | 0.00 | 0.00 | 0.00 | 15 | 1003.3 |
| 20260504210016 | 82 | 328 | 2.0 | 5.0 | 0.00 | 0.00 | 0.00 | 15 | 1003.6 |
| 20260504205035 | 83 | 312 | 4.0 | 10.0 | 0.00 | 0.00 | 0.00 | 16 | 1003.7 |
| 20260504204016 | 84 | 267 | 5.0 | 12.0 | 0.00 | 0.00 | 0.00 | 15 | 1003.9 |
| 20260504203035 | 83 | 262 | 3.0 | 10.0 | 0.00 | 0.00 | 0.00 | 15 | 1003.8 |
| 20260504202035 | 84 | 345 | 3.0 | 9.0 | 0.00 | 0.00 | 0.00 | 15 | 1003.9 |
| 20260504201015 | 83 | 313 | 4.0 | 9.0 | 0.00 | 0.00 | 0.00 | 14 | 1004.0 |
| 20260504200015 | 83 | 229 | 3.0 | 7.0 | 0.00 | 0.00 | 0.00 | 15 | 1004.1 |
| 20260504195015 | 82 | 248 | 5.0 | 11.0 | 0.00 | 0.00 | 0.00 | 16 | 1004.1 |
| 20260504194015 | 83 | 295 | 2.0 | 7.0 | 0.00 | 0.00 | 0.00 | 16 | 1004.2 |
| 20260504193015 | 82 | 1 | 1.0 | 4.0 | 0.00 | 0.00 | 0.00 | 17 | 1004.3 |
| 20260504192015 | 81 | 290 | 4.0 | 9.0 | 0.00 | 0.00 | 0.00 | 17 | 1004.5 |
| 20260504191035 | 81 | 270 | 5.0 | 12.0 | 0.00 | 0.00 | 0.00 | 18 | 1004.6 |
| 20260504190035 | 80 | 276 | 5.0 | 10.0 | 0.00 | 0.00 | 0.00 | 20 | 1004.8 |
| 20260504185015 | 79 | 266 | 4.0 | 14.0 | 0.00 | 0.00 | 0.00 | 21 | 1004.8 |
| 20260504184015 | 80 | 259 | 6.0 | 11.0 | 0.00 | 0.00 | 0.00 | 20 | 1005.5 |
| 20260504183015 | 79 | 273 | 4.0 | 15.0 | 0.00 | 0.00 | 0.00 | 22 | 1005.7 |
| 20260504182015 | 79 | 294 | 5.0 | 12.0 | 0.00 | 0.00 | 0.00 | 22 | 1005.9 |
| 20260504181014 | 79 | 280 | 5.0 | 13.0 | 0.00 | 0.00 | 0.00 | 22 | 1006.0 |
| 20260504180015 | 79 | 293 | 5.0 | 13.0 | 0.00 | 0.00 | 0.00 | 22 | 1006.1 |
| 20260504175016 | 78 | 283 | 5.0 | 15.0 | 0.00 | 0.00 | 0.00 | 23 | 1006.2 |
| 20260504174015 | 78 | 270 | 7.0 | 13.0 | 0.00 | 0.00 | 0.00 | 23 | 1006.4 |
| 20260504173015 | 77 | 264 | 8.0 | 15.0 | 0.00 | 0.00 | 0.00 | 23 | 1006.7 |
| 20260504172014 | 77 | 268 | 8.0 | 15.0 | 0.00 | 0.00 | 0.00 | 24 | 1006.9 |
| 20260504171015 | 76 | 257 | 7.0 | 15.0 | 0.00 | 0.00 | 0.00 | 24 | 1007.0 |
| 20260504151017 | 67 | 260 | 4.0 | 10.0 | 0.00 | 0.00 | 0.00 | 33 | 1008.1 |
| 20260504141016 | 56 | 263 | 4.0 | 9.0 | 0.00 | 0.00 | 0.00 | 49 | 1008.1 |
| 20260504081015 | 48 | 0.0 | 0.0 | 0.00 | 0.00 | 0.00 | 53 | 1008.4 |